Location: Allos
(44.2333°N, 6.6333°E)
Time: 14:31:29
(UTC+00:00)

Meteor 1-5 Rocket - Visible Passes

Search period start: 20 April 2021 00:00
Search period end: 30 April 2021 00:00
Orbit: 790 x 915 km, 81.2° (Epoch: 19 April)

Date Brightness Start Highest point End Pass type
(mag) Time Alt. Az. Time Alt. Az. Time Alt. Az.
20 Apr 6.4 01:16:33 10° NW 01:17:55 13° WNW 01:17:55 13° WNW visible
20 Apr 6.6 21:41:20 10° NE 21:41:49 10° ENE 21:42:18 10° ENE visible
20 Apr 5.1 23:20:19 10° N 23:24:25 46° NNE 23:24:25 46° NNE visible
21 Apr 6.3 01:04:48 10° NW 01:06:27 15° WNW 01:06:27 15° WNW visible
21 Apr 5.0 23:08:47 10° N 23:12:58 46° NNE 23:12:58 46° NNE visible
22 Apr 6.3 00:53:05 10° NW 00:55:00 16° WNW 00:55:00 16° WNW visible
22 Apr 5.0 22:57:15 10° N 23:01:31 46° NNE 23:01:31 46° NNE visible
23 Apr 6.2 00:41:22 10° NW 00:43:34 17° WNW 00:43:34 17° WNW visible
23 Apr 5.0 22:45:43 10° N 22:50:05 45° NE 22:50:05 45° NE visible
24 Apr 6.1 00:29:40 10° NW 00:32:08 18° WNW 00:32:08 18° WNW visible
24 Apr 5.0 22:34:12 10° N 22:38:40 45° NE 22:38:40 45° NE visible
25 Apr 6.0 00:17:59 10° NW 00:20:43 20° WNW 00:20:43 20° WNW visible
25 Apr 4.9 22:22:40 10° N 22:27:15 43° NE 22:27:15 43° NE visible
26 Apr 5.9 00:06:19 10° NW 00:09:18 22° WNW 00:09:18 22° WNW visible
26 Apr 5.0 22:11:08 10° N 22:15:51 42° NE 22:15:51 42° NE visible
26 Apr 5.8 23:54:39 10° NNW 23:57:54 23° WNW 23:57:54 23° WNW visible
27 Apr 5.0 21:59:38 10° N 22:04:28 39° ENE 22:04:28 39° ENE visible
27 Apr 5.7 23:43:00 10° NNW 23:46:30 25° WNW 23:46:30 25° WNW visible
28 Apr 5.0 21:48:07 10° N 21:53:05 37° ENE 21:53:05 37° ENE visible
28 Apr 5.6 23:31:22 10° NNW 23:35:08 28° WNW 23:35:08 28° WNW visible
29 Apr 5.0 21:36:36 10° N 21:41:40 35° ENE 21:41:43 35° ENE visible
29 Apr 5.5 23:19:43 10° NNW 23:23:45 30° WNW 23:23:45 30° WNW visible
